TimeEDT,TemperatureF,Dew PointF,Humidity,Sea Level PressureIn,VisibilityMPH,Wind Direction,Wind SpeedMPH,Gust SpeedMPH,PrecipitationIn,Events,Conditions,WindDirDegrees,DateUTC
12:53 AM,77.0,73.0,88,30.14,10.0,Calm,Calm,-,N/A,,Mostly Cloudy,0,2013-07-18 04:53:00
1:53 AM,78.1,72.0,81,30.13,10.0,ESE,4.6,-,N/A,,Clear,120,2013-07-18 05:53:00
2:53 AM,77.0,71.1,82,30.11,10.0,Calm,Calm,-,N/A,,Clear,0,2013-07-18 06:53:00
3:53 AM,77.0,71.1,82,30.11,10.0,Calm,Calm,-,N/A,,Clear,0,2013-07-18 07:53:00
4:53 AM,75.9,72.0,87,30.09,10.0,Calm,Calm,-,N/A,,Clear,0,2013-07-18 08:53:00
5:53 AM,75.9,71.1,85,30.09,10.0,Calm,Calm,-,N/A,,Scattered Clouds,0,2013-07-18 09:53:00
6:12 AM,75.2,69.8,83,30.10,10.0,Calm,Calm,-,N/A,,Mostly Cloudy,0,2013-07-18 10:12:00
6:53 AM,75.0,71.1,87,30.10,10.0,ESE,3.5,-,N/A,,Scattered Clouds,120,2013-07-18 10:53:00
7:53 AM,75.9,71.1,85,30.12,10.0,East,5.8,-,N/A,,Partly Cloudy,90,2013-07-18 11:53:00
8:23 AM,77.0,71.6,83,30.13,10.0,East,5.8,-,N/A,,Mostly Cloudy,100,2013-07-18 12:23:00
8:53 AM,77.0,71.1,82,30.14,10.0,East,6.9,-,N/A,,Mostly Cloudy,100,2013-07-18 12:53:00
9:43 AM,78.8,71.6,78,30.15,10.0,ESE,6.9,-,N/A,,Mostly Cloudy,110,2013-07-18 13:43:00
9:53 AM,79.0,72.0,79,30.15,10.0,East,5.8,-,N/A,,Mostly Cloudy,100,2013-07-18 13:53:00
10:53 AM,82.0,72.0,71,30.15,10.0,Variable,4.6,-,N/A,,Scattered Clouds,0,2013-07-18 14:53:00
11:53 AM,84.9,68.0,57,30.15,10.0,East,6.9,-,N/A,,Scattered Clouds,80,2013-07-18 15:53:00
12:53 PM,89.1,64.9,45,30.14,10.0,ENE,8.1,-,N/A,,Scattered Clouds,70,2013-07-18 16:53:00
1:53 PM,89.1,64.9,45,30.13,10.0,Variable,4.6,-,N/A,,Partly Cloudy,0,2013-07-18 17:53:00
2:53 PM,91.0,64.0,41,30.10,10.0,ESE,10.4,-,N/A,,Partly Cloudy,110,2013-07-18 18:53:00
3:53 PM,91.0,64.0,41,30.07,10.0,South,3.5,-,N/A,,Scattered Clouds,180,2013-07-18 19:53:00
4:53 PM,91.0,64.0,41,30.04,10.0,SE,4.6,-,N/A,,Scattered Clouds,140,2013-07-18 20:53:00
5:53 PM,90.0,63.0,40,30.04,10.0,East,5.8,-,N/A,,Scattered Clouds,90,2013-07-18 21:53:00
6:53 PM,90.0,66.0,45,30.04,10.0,ENE,6.9,-,N/A,,Partly Cloudy,70,2013-07-18 22:53:00
7:53 PM,89.1,66.0,46,30.05,10.0,East,4.6,-,N/A,,Partly Cloudy,100,2013-07-18 23:53:00
8:53 PM,84.0,70.0,63,30.05,10.0,South,3.5,-,N/A,,Partly Cloudy,180,2013-07-19 00:53:00
9:53 PM,82.0,71.1,69,30.07,10.0,Calm,Calm,-,N/A,,Partly Cloudy,0,2013-07-19 01:53:00
10:53 PM,79.0,71.1,77,30.09,10.0,Calm,Calm,-,N/A,,Partly Cloudy,0,2013-07-19 02:53:00
11:53 PM,78.1,71.1,79,30.09,10.0,Calm,Calm,-,N/A,,Clear,0,2013-07-19 03:53:00